Regional Weather Roundup
Issued by NWS Upton, NY

Current Version | Previous Version | Text Only | Print | Product List | Glossary Off
Versions: 1 2 3 4 5 6 7 8 9 10 11 12 13 14 15 16 17 18 19 20 21 22 23 24 25 26 27 28 29 30 31 32 33 34 35 36 37 38 39 40 41 42 43 44 45 46 47 48 49 50
000 ASUS41 KOKX 260509 RWROKX REGIONAL WEATHER ROUNDUP NATIONAL WEATHER SERVICE NEW YORK NY 100 AM EDT MON JUN 26 2017 NOTE: "FAIR" INDICATES FEW OR NO CLOUDS BELOW 12,000 FEET WITH NO SIGNIFICANT WEATHER AND/OR OBSTRUCTIONS TO VISIBILITY. NYZ071-072-176-178-NJZ106-104-260600- NEW YORK CITY METRO AREA CITY SKY/WX TMP DP RH WIND PRES REMARKS Central Park PTCLDY 71 51 49 MISG 30.02R Bronx Bot Gard N/A 70 48 46 N6 29.98F LaGuardia APRT PTCLDY 72 53 51 N14G23 29.98R Kennedy INTL CLOUDY 74 52 46 NW21G29 29.99R Breezy Point N/A 72 N/A N/A NW15 N/A Newark/Liberty MOCLDY 71 50 47 N16 29.99R Teterboro PTCLDY 69 51 52 N10 29.98S $$ NYZ177-179-078>081-260600- LONG ISLAND NEW YORK CITY SKY/WX TMP DP RH WIND PRES REMARKS Jones Beach N/A 72 N/A N/A NW17G25 N/A Matinecock PT NOT AVBL Farmingdale NOT AVBL MacArthur/ISP CLOUDY 71 63 75 W10 29.96R Shirley CLOUDY 71 65 81 SW3 29.96R Mt Sinai Harb N/A N/A N/A N/A W8G16 N/A Westhampton CLOUDY 69 63 81 SW10 29.97S East Hampton CLOUDY 69 62 79 W13 29.94S Montauk N/A 71 62 73 W8 29.94F $$ NYZ052-065-067-260600- HUDSON VALLEY CITY SKY/WX TMP DP RH WIND PRES REMARKS White Plains CLEAR 66 52 59 N15 29.98R Larchmont Harb N/A 70 N/A N/A NW12 N/A Croton O-T Hud N/A 66 N/A N/A NE1 N/A Newburgh CLEAR 63 52 67 SW6 30.02S Montgomery CLEAR 65 50 58 CALM 30.00S Poughkeepsie PTCLDY 59 53 80 SE3 29.99S Albany CLOUDY 60 56 86 CALM 29.99S $$ NJZ001-105-106-008-010-013-015-019>022-104-260600- NEW JERSEY CITY SKY/WX TMP DP RH WIND PRES REMARKS Newark/Liberty MOCLDY 71 50 47 N16 29.99R Teterboro PTCLDY 69 51 52 N10 29.98S Caldwell PTCLDY 68 50 52 CALM 30.01R Somerville CLEAR 67 53 61 CALM 29.98R Linden FAIR 71 48 45 CALM 29.99R Perth Amboy N/A 72 N/A N/A N15 N/A Sussex CLEAR 59 51 75 CALM 30.01F Andover N/A 59 53 80 CALM 30.03S Trenton CLEAR 69 54 58 NW3 29.98S Millville CLEAR 64 57 78 CALM 30.00R Atlantic City CLEAR 69 58 67 CALM 30.00 Wrightstown CLEAR 70 52 52 W5 N/A Toms River CLEAR 63 58 83 W3 29.99S Belmar CLEAR 67 59 75 W6 29.99S $$ PAZ047>061-062-071-260600- EASTERN PENNSYLVANIA CITY SKY/WX TMP DP RH WIND PRES REMARKS Philadelphia PTCLDY 74 47 38 W9 30.00S Allentown CLOUDY 65 52 62 NW3 30.02R Scranton CLEAR 58 52 80 SE5 30.03S $$ CTZ002-004>006-009-010-012-RIZ004-006-007-MAZ004-011-015-260600- SOUTHERN NEW ENGLAND IN CT CITY SKY/WX TMP DP RH WIND PRES REMARKS Bradley INTL PTCLDY 62 54 74 N6 29.98S Hartford CLEAR 65 55 70 N6 29.97R Danbury CLEAR 64 51 62 N3 30.01R Wtrbury/Oxford PTCLDY 63 48 59 N9 30.01R Bridgeport PTCLDY 70 55 59 N14 29.97R Meriden PTCLDY 66 54 65 N6 29.98R New Haven NOT AVBL Chester FAIR 66 59 77 NW6 29.97R Groton PTCLDY 66 59 78 N7 29.94R Wilimantic CLEAR 65 59 81 NW3 29.97R IN RI CITY SKY/WX TMP DP RH WIND PRES REMARKS Providence MOCLDY 67 59 75 N7 29.96R Block Island CLOUDY 64 61 90 VRB7 29.95R Westerly CLEAR 67 60 78 NW5 29.95R IN MA CITY SKY/WX TMP DP RH WIND PRES REMARKS Boston MOCLDY 66 57 72 W8 29.93S Worcester CLOUDY 59 55 87 W12 29.97F Westfield LGT RAIN 62 58 86 NW6 N/A Provincetown CLEAR 62 56 80 W8 29.93F Nantucket CLEAR 62 62 100 SW6 29.93F $$ ANZ330-335-338-340-345-350-353-355-260600- COASTAL MARINE OBSERVATIONS STATION/POSITION TIME SKY/WX TEMP WIND PRES VSBY WAVE AIR SEA DIR/SP/G HT/PER (UTC) (F) (DEG/KT/KT) (MB) (MI) (FT/S) NY HARB ENTRANCE 0350 70 67 240/ 12/ 12 1014.4 2/ 8 20 S FIRE ISLAND 0450 71 69 260/ 12/ 14 1013.8 3/ 7 GREAT SOUTH BAY 0430 74 76 250/ 12/ 14 N/A 23 SSW MONTAUK P 0350 67 67 1014.4 3/ 8 15 E BARNEGAT LI 0430 64 N/A 3/ 7 HUDSON CANYON 0350 71 68 240/ 12/ 12 1014.4 3/ 8 KINGS POINT 0430 71 65 10/ 19/ 21 1014.9 EXECUTION ROCKS 0445 71 320/ 16/ 23 N/A CENTRAL LI SOUND NOT AVBL EASTERN LI SOUND NOT AVBL ROBBINS REEF 0430 330/ 20/ 24 1015.5 $$ >>>>>>>>>>>>>>>>>>>>>>>>>>>> KEY <<<<<<<<<<<<<<<<<<<<<<<<<<< > < > SKY/WX - Sky Condition/Present Weather < > TMP - Temperature in Fahrenheit < > DP - Dew Point in Fahrenheit < > RH - Relative Humidity in Percent < > WIND - Direction (from) and Speed in MPH < > PRES - Mean Sea Level Pressure (inches of Hg) < > WCI - Wind Chill Index < > VSB - VISIBILITY IN MILES < > HX - HEAT INDEX < > TC - TEMPERATURE IN CELSIUS < > VRB - VARIABLE WIND DIRECTION < > < >>>>>>>>>>>>>>>>>>>>>>>>>>>> KEY <<<<<<<<<<<<<<<<<<<<<<<<<<<

USA.gov is the U.S. government's official web portal to all federal, state and local government web resources and services.